CAPE
747 1449 1925 1718 1316 1300 1160 955 674 392 611 637 373 219 126 167 445 627 698 496 286 95 37 2 0 0 0 0 1 0 0 6 34 1 0 137 256 169 35 18 18 0 3
1090 1508 1962 1831 1580 1415 1142 835 674 888 701 689 3 0 0 45 204 504 469 332 94 63 10 1 0 0 1 4 4 1 0 0 0 0 57 99 214 82 11 6 26 5 148
1191 1523 1523 1896 1660 1520 1282 755 578 695 757 502 6 1 3 7 16 175 461 134 13 15 7 1 0 0 0 0 0 0 0 0 0 0 77 3 4 12 7 6 9 4 5
1117 1398 1450 1836 1768 1445 1216 775 748 609 796 570 7 1 4 10 9 13 12 13 13 9 3 2 0 0 0 0 0 0 31 198 137 56 0 0 0 8 5 7 7 3 0
882 1314 1582 1810 1630 1484 1024 769 606 862 817 701 83 1 2 6 14 24 8 8 8 4 4 3 0 0 0 0 0 0 0 77 82 12 0 0 0 9 3 2 0 0 0
984 1253 1652 1717 1626 1478 1156 831 417 878 749 640 112 0 0 2 5 10 7 7 6 4 3 2 0 0 0 0 0 0 0 0 0 0 9 13 0 0 0 0 0 0 0
1260 1369 1471 1756 1477 1304 936 773 633 651 992 793 227 4 0 1 3 5 6 7 6 3 2 0 0 10 10 0 0 0 0 0 0 0 0 0 0 0 0 0 0 0 0
1326 1264 1251 1333 1439 1267 852 721 599 699 885 1152 692 98 0 1 2 3 6 6 5 2 1 3 0 0 0 0 0 0 0 0 0 0 0 0 34 0 0 0 0 0 0
1343 1242 1248 1163 1124 979 782 570 495 732 895 1280 890 521 156 21 7 1 0 0 0 0 8 14 9 0 0 0 0 0 0 0 0 0 0 0 28 16 0 0 0 0 0
1301 1211 1088 1023 862 503 215 300 620 831 940 1075 729 379 100 34 40 35 57 37 0 0 11 11 7 0 0 0 0 0 0 0 0 0 0 0 0 40 36 0 0 0 0
1020 902 871 737 573 262 60 71 458 349 643 738 314 107 33 0 3 11 0 4 5 0 0 0 0 0 0 0 0 0 0 0 0 0 0 0 0 12 95 125 0 0 0
771 831 828 664 424 211 63 0 128 117 43 21 8 0 0 0 0 0 0 0 0 0 0 0 0 0 0 0 0 0 0 0 0 0 0 0 0 0 46 175 0 0 0
698 968 787 690 470 251 91 0 0 0 0 0 0 0 0 0 0 0 0 0 0 0 0 0 0 0 0 0 0 0 0 0 0 0 0 0 0 0 0 52 334 0 0
405 805 803 750 550 226 84 0 0 0 0 0 0 0 0 0 0 0 0 0 0 0 0 0 0 0 0 0 0 0 0 0 0 0 0 0 0 0 0 0 340 73 0
429 506 563 709 687 312 133 95 2 0 0 0 0 0 0 0 0 0 0 0 0 0 0 0 0 0 0 0 0 0 0 0 0 0 0 0 0 0 0 0 39 187 98
360 560 371 838 723 384 267 301 119 24 15 14 1 0 0 0 0 0 0 0 0 0 0 0 0 0 0 0 0 0 0 0 0 0 0 0 0 1 21 3 7 30 53
508 539 519 494 514 454 445 496 303 120 73 25 25 0 0 0 0 0 0 0 0 0 0 0 0 0 0 0 0 0 0 2 0 0 0 0 0 0 3 19 51 25 30
388 686 618 684 885 599 580 562 518 362 201 140 27 21 4 0 0 0 0 0 0 0 0 0 0 0 0 0 0 0 5 1 0 2 0 0 0 0 0 3 75 40 19
411 572 685 494 416 646 691 613 521 441 268 193 72 46 25 1 0 0 0 0 0 0 0 0 0 0 1 4 4 10 3 2 2 0 0 0 0 0 0 0 0 0 0
439 369 353 412 461 532 442 388 274 292 97 102 30 13 12 3 1 6 14 17 22 35 25 0 2 6 19 16 15 28 6 22 5 0 0 0 0 0 0 0 0 0 0
382 360 380 406 483 349 247 263 115 112 33 14 0 1 15 35 7 5 28 47 42 64 120 76 59 130 110 3 30 3 0 0 0 0 0 0 0 0 0 0 0 0 0
450 450 386 472 347 368 344 223 139 82 85 68 25 111 177 167 177 97 120 167 200 262 265 270 234 211 134 19 16 0 5 0 0 0 0 0 0 0 0 0 0 0 0
149 386 532 601 516 456 307 197 174 151 181 206 164 142 43 86 235 247 259 277 236 200 229 142 85 91 26 0 0 2 4 0 0 0 0 0 0 0 0 0 0 0 0
0 69 472 610 623 475 350 361 277 298 286 179 141 8 0 0 0 0 0 0 0 0 0 0 0 0 0 0 0 0 0 0 16 0 0 0 0 0 0 0 0 0 0
0 0 0 283 382 382 420 395 318 188 121 0 0 0 0 0 0 0 0 0 0 0 0 0 0 0 0 0 0 0 0 0 0 0 0 0 0 0 0 0 0 0 0
0 0 0 3 8 1 38 96 203 189 0 0 0 0 0 0 0 0 0 0 0 0 0 0 0 0 0 0 0 0 0 0 0 0 0 0 0 0 0 0 0 0 0
CIN
-67 0 0 0 0 0 0 0 -13 -55 -32 -30 -83 -131 -157 -126 -35 -21 -9 -12 -42 -128 -191 0 0 0 0 0 0 0 0 0 -129 0 0 -102 -41 -65 -2 0 -2 -2 0
-31 0 0 0 0 0 0 0 -5 0 -10 -11 0 0 -7 -185 -72 -21 -23 -36 -125 -147 0 0 0 0 0 0 0 0 0 0 0 0 -67 -103 -44 -53 0 0 -2 -1 -28
-7 0 0 0 0 0 0 0 -5 -3 -2 -25 -86 0 0 0 -241 -84 -17 -109 0 0 0 0 0 0 0 0 0 0 0 0 0 0 -20 -10 -3 0 0 0 0 0 0
-15 0 0 0 0 0 0 0 0 -1 0 -11 -76 0 0 0 0 -123 -127 0 0 0 0 0 0 0 0 0 0 0 -34 -101 -58 -50 0 0 0 0 0 0 0 0 0
-29 -1 0 0 0 0 0 0 0 0 0 0 -155 0 0 0 -58 -235 0 0 0 0 0 0 0 0 0 0 0 0 0 -68 -55 -103 0 0 0 -80 0 0 0 0 0
-11 -2 -1 0 0 0 0 0 -14 0 -3 -7 -107 0 0 0 0 0 0 0 0 0 0 0 0 0 0 0 0 0 0 0 -4 -4 -149 -102 0 0 0 0 0 0 0
0 0 0 0 0 0 -3 -6 -10 -12 -7 -14 -58 -68 0 0 0 0 0 0 0 0 0 0 0 -166 -179 0 0 0 0 0 0 0 0 0 -2 0 0 0 0 0 0
0 -1 -1 -1 0 -1 -11 -15 -21 -20 -17 -10 -26 -113 0 0 0 0 0 0 0 0 0 -36 0 0 0 0 0 0 0 0 0 0 0 0 -40 0 0 0 0 0 0
0 0 -2 -3 -2 -11 -17 -41 -40 -24 -19 -6 -20 -42 -102 -224 -62 0 0 0 0 0 -222 -216 -231 0 0 0 0 0 0 0 0 0 0 0 -31 -12 0 0 0 0 0
-5 0 -2 -6 -15 -46 -102 -102 -49 -21 -17 -19 -30 -70 -151 -241 -244 -291 -253 -322 0 0 -256 -271 -277 0 0 0 0 0 0 0 0 0 0 0 0 -9 -20 0 0 0 0
-7 -23 -9 -13 -32 -101 -199 -193 -84 -107 -52 -36 -89 -153 -265 0 -131 -228 0 -87 -159 0 0 0 0 0 0 0 0 0 0 0 0 0 0 0 0 -15 -1 0 0 0 0
-10 -16 -17 -22 -56 -125 -197 0 -181 -220 -268 -161 -117 0 0 0 0 0 0 0 0 0 0 0 0 0 0 0 0 0 0 0 0 0 0 0 0 0 -5 0 0 0 0
-52 -19 -35 -27 -60 -124 -198 0 0 0 0 0 0 0 0 0 0 0 0 0 0 0 0 0 0 0 0 0 0 0 0 0 0 0 0 0 0 0 0 -11 0 0 0
-25 -41 -36 -39 -66 -145 -224 -27 0 0 0 0 0 0 0 0 0 0 0 0 0 0 0 0 0 0 0 0 0 0 0 0 0 0 0 0 0 0 0 0 0 -2 -1
-24 -30 -64 -44 -88 -145 -201 -226 -51 0 0 0 0 0 0 0 0 0 0 0 0 0 0 0 0 0 0 0 0 0 0 0 0 0 0 0 0 0 0 0 -18 -5 -1
-56 -23 -51 -56 -99 -145 -172 -170 -243 -337 -368 -373 -90 0 0 0 0 0 0 0 0 0 0 0 0 0 0 0 0 0 0 0 0 0 0 0 0 -27 -62 -37 -27 -15 -7
-43 -51 -45 -62 -91 -126 -112 -122 -188 -258 -270 -364 -380 -29 0 0 0 0 0 0 0 0 0 0 0 0 0 0 0 0 0 -87 0 0 -47 0 0 -5 -72 -39 -22 -29 -10
-115 -53 -48 -45 -63 -99 -123 -120 -104 -144 -171 -213 -356 -401 -306 0 0 0 0 0 0 0 0 0 0 0 0 0 -8 -10 -48 -74 0 -103 0 0 0 -35 0 -74 -30 -27 -18
-142 -99 -113 -119 -93 -80 -79 -115 -117 -98 -136 -167 -287 -330 -302 -148 0 0 0 0 0 0 0 0 0 -5 -26 -33 -39 -37 -53 -60 -62 0 0 0 0 0 0 0 0 0 0
-127 -144 -118 -94 -89 -75 -91 -111 -136 -128 -211 -237 -270 -283 -271 -161 -58 -279 -237 -207 -196 -148 -134 -42 -38 -52 -67 -23 -41 -31 -35 -50 -57 0 0 0 0 0 0 0 0 0 0
-151 -155 -130 -106 -124 -146 -197 -158 -246 -234 -259 -275 -1 -14 -201 -160 -197 -220 -195 -151 -145 -118 -81 -72 -43 -15 -31 -75 -28 -41 0 0 0 0 0 0 0 0 0 0 0 0 0
-151 -163 -170 -129 -158 -138 -155 -187 -218 -227 -199 -160 -180 -115 -101 -97 -89 -116 -110 -89 -77 -52 -30 -22 -20 -12 -28 -89 -13 -7 -5 0 0 0 0 0 0 0 0 0 0 0 0
-239 -198 -164 -160 -173 -169 -186 -186 -169 -143 -105 -63 -89 -119 -84 -113 -132 -105 -97 -85 -79 -82 -53 -72 -71 -43 -41 0 0 -12 -6 0 0 0 0 0 0 0 0 0 0 0 0
0 -250 -181 -172 -162 -162 -196 -134 -129 -92 -71 -133 -148 -56 0 0 0 0 0 0 0 0 0 0 0 0 0 0 0 0 0 0 -6 -10 0 0 0 0 0 0 0 0 0
0 0 0 -197 -166 -170 -147 -127 -143 -179 -203 0 0 0 0 0 0 0 0 0 0 0 0 0 0 0 0 0 0 0 0 0 0 -22 0 0 0 0 0 0 0 0 0
0 0 0 -237 -253 -245 -373 -274 -201 -169 0 0 0 0 0 0 0 0 0 0 0 0 0 0 0 0 0 0 0 0 0 0 0 0 0 0 0 0 0 0 0 0 0
Wind_Speed
11 12 18 19 19 18 17 16 15 14 13 17 18 16 16 16 17 19 21 20 18 19 18 18 18 17 17 17 16 15 14 14 14 12 12 12 16 18 18 16 12 7 13
15 14 19 18 19 18 17 16 14 12 13 17 17 17 16 16 16 17 20 19 16 18 18 17 17 16 16 15 14 12 10 9 9 9 9 10 13 15 15 14 13 11 12
14 13 15 18 17 17 17 17 15 13 17 16 17 17 16 16 16 15 19 18 16 17 16 16 15 15 13 13 11 9 7 6 5 7 8 4 7 13 13 12 11 11 11
15 12 12 18 18 17 17 17 16 17 17 16 17 17 17 16 17 15 15 17 16 15 15 14 12 12 11 11 11 11 12 12 9 8 4 5 7 12 12 12 11 11 12
13 12 13 18 18 18 17 17 17 16 16 16 17 16 17 16 16 16 16 16 15 14 14 13 12 11 10 10 11 14 14 14 11 9 5 5 5 9 12 11 10 11 11
9 9 15 18 18 17 15 15 16 16 18 18 18 17 16 16 16 16 16 15 14 14 14 13 12 10 9 9 10 11 11 10 9 6 5 7 5 11 11 11 11 11 11
10 10 13 18 18 16 14 14 14 15 16 19 18 17 17 16 16 15 14 14 14 13 13 12 11 9 8 7 8 9 10 9 5 5 4 4 4 9 10 10 10 11 11
12 11 13 16 17 16 14 13 12 13 14 18 18 17 17 16 15 14 14 13 12 12 11 10 10 8 7 6 6 7 7 8 4 3 4 2 4 6 7 7 8 9 9
10 9 9 10 12 14 12 13 12 12 12 14 17 16 14 14 14 15 14 13 12 11 10 9 8 7 6 4 3 4 5 7 4 3 3 1 2 4 4 4 5 6 8
12 11 9 8 8 7 6 12 11 10 8 12 14 13 12 11 11 10 9 9 11 10 9 9 7 6 4 2 2 4 6 7 3 4 2 3 4 4 4 3 3 3 5
11 13 12 11 5 5 6 6 11 11 10 12 11 11 8 5 6 7 6 7 6 7 7 7 7 5 4 1 2 4 4 1 1 2 2 6 5 4 4 5 4 3 3
11 12 9 10 7 6 5 5 4 6 5 6 6 6 4 5 5 6 6 9 7 7 6 6 5 4 3 1 2 3 1 2 1 2 3 6 5 3 2 4 6 5 3
10 8 12 11 10 7 5 3 2 2 3 3 6 5 5 4 4 3 3 2 2 5 2 3 2 1 3 2 2 2 3 3 1 2 4 9 7 5 4 4 7 6 5
5 9 11 12 11 7 5 5 4 4 3 3 4 6 4 3 4 3 3 4 4 3 4 3 2 3 4 4 4 4 4 3 3 2 4 9 9 7 6 4 7 6 6
9 9 9 11 12 10 8 4 4 4 4 5 4 5 4 4 4 4 4 4 4 3 3 3 4 3 4 5 4 5 4 5 5 3 3 9 10 9 8 7 7 9 9
20 17 4 6 9 10 9 9 7 5 6 5 4 5 7 5 5 5 4 4 4 4 4 4 4 4 4 3 4 4 6 5 5 6 4 4 10 11 10 10 8 9 10
9 16 13 7 9 12 12 10 5 6 5 5 6 6 7 6 6 6 4 4 4 4 5 4 4 2 1 1 4 4 4 5 5 4 3 4 4 9 10 11 10 6 9
7 12 12 13 13 11 9 8 6 6 5 4 5 6 7 7 7 5 4 4 4 4 3 2 2 2 3 3 3 4 3 3 4 4 2 3 3 2 5 10 8 4 5
8 9 11 7 8 10 8 7 6 7 4 4 4 6 7 7 7 5 4 4 4 3 4 3 3 3 3 3 3 4 3 3 3 3 5 4 3 3 1 3 4 5 4
8 8 5 6 9 7 5 3 2 3 3 3 4 5 7 5 7 5 4 5 5 3 3 3 4 3 3 3 4 3 4 4 4 4 5 1 2 4 5 6 5 5 12
6 6 9 8 6 4 2 3 3 4 3 3 3 6 8 8 8 7 5 5 4 4 4 4 2 3 3 2 2 3 3 5 5 4 2 2 5 4 6 5 4 3 5
11 11 9 11 8 9 7 4 3 3 2 3 4 5 6 6 5 5 4 3 4 3 3 3 3 1 2 1 2 1 3 4 2 3 3 3 5 4 4 5 6 6 4
8 10 12 12 12 9 7 2 1 3 2 1 1 2 2 4 5 5 5 3 1 1 1 1 1 3 2 2 2 3 2 3 1 2 2 3 3 3 3 4 5 6 5
10 5 6 9 12 9 9 7 6 5 4 3 3 3 4 2 3 5 5 4 3 2 1 1 0 1 2 4 2 3 3 2 3 3 1 0 2 3 4 4 5 4 5
5 5 2 4 6 6 8 10 8 5 4 2 0 5 3 3 1 3 2 3 3 1 1 1 2 2 2 2 3 1 2 1 3 4 3 2 3 3 4 4 4 3 5
5 6 4 3 3 4 5 4 6 8 7 5 4 4 4 5 3 3 2 3 3 2 2 2 2 3 3 3 2 3 3 3 3 3 2 3 3 2 3 4 3 3 3
Wind_Direction
156 153 146 142 136 135 131 127 122 119 124 120 108 102 97 94 93 102 103 99 100 98 95 93 92 92 92 91 89 87 84 82 78 74 71 66 76 67 60 62 84 59 59
142 148 146 144 142 137 131 126 122 126 127 110 110 106 105 105 101 104 102 97 100 98 96 95 94 92 93 92 90 89 91 90 83 71 73 60 70 70 67 58 36 70 59
141 149 145 143 137 134 132 128 124 120 116 112 111 110 110 108 107 102 106 105 101 98 98 98 95 94 93 91 86 76 76 107 118 97 92 85 59 57 60 55 53 44 44
141 143 145 138 138 134 133 130 128 125 120 118 112 113 114 114 113 113 112 110 102 102 99 99 99 96 92 84 73 64 73 88 123 107 66 63 68 67 64 62 59 57 49
140 141 142 140 135 136 136 135 134 132 132 123 117 117 118 119 119 118 120 107 110 104 102 103 103 100 92 78 65 60 68 82 89 93 84 75 65 68 69 70 58 52 52
132 135 140 136 136 136 137 138 139 137 140 130 124 123 122 122 124 125 124 120 117 114 110 109 107 101 86 74 66 61 58 72 88 89 80 84 79 79 78 69 61 55 52
131 136 138 138 137 136 137 138 141 142 139 134 129 127 127 125 127 129 129 130 127 124 120 116 114 113 105 86 73 60 57 72 85 88 87 89 89 87 81 72 61 55 51
138 134 142 139 136 135 136 137 142 144 146 141 135 133 133 132 132 132 133 133 131 127 123 119 114 113 112 95 76 65 56 59 75 110 112 118 118 101 93 82 65 55 51
132 128 128 132 134 133 137 139 143 149 151 147 138 137 135 137 141 141 143 141 138 134 130 127 124 120 109 95 74 66 45 65 80 147 138 159 178 124 114 99 76 60 52
140 134 134 133 131 127 139 141 136 129 146 143 136 135 137 141 142 143 138 142 141 142 144 143 142 139 130 101 9 4 24 58 60 160 150 202 173 173 179 181 144 78 59
146 148 145 147 128 128 133 152 139 136 131 135 138 141 135 136 139 138 149 143 147 149 156 157 157 159 157 187 304 336 10 24 95 182 221 208 196 205 241 203 184 150 87
156 152 151 146 144 144 151 149 150 139 138 144 147 148 144 150 155 157 167 164 169 168 178 182 191 189 167 236 295 337 294 298 172 204 215 219 217 218 236 219 212 193 172
179 169 163 159 158 159 145 161 149 152 151 160 162 162 164 159 164 159 157 189 180 191 203 222 230 215 222 224 251 238 266 259 234 227 229 218 222 226 235 278 215 217 213
249 194 175 168 163 167 158 172 169 160 177 193 202 171 166 163 177 181 174 192 199 204 207 214 222 243 249 244 253 256 245 250 245 237 236 227 226 224 232 235 210 222 230
184 249 196 181 162 168 170 178 173 181 178 195 192 185 173 163 176 183 192 196 211 200 210 229 235 234 256 248 250 251 265 251 246 243 235 231 226 226 228 229 236 223 234
176 193 235 176 173 168 179 179 189 186 189 187 196 195 184 177 176 191 195 203 215 204 208 222 220 230 237 222 248 237 248 252 251 244 234 245 233 229 224 227 237 251 257
201 168 172 231 191 181 180 189 179 195 191 179 198 191 185 184 191 180 182 205 210 212 201 201 210 194 272 251 265 273 270 264 256 272 274 259 241 239 242 241 224 242 273
153 175 194 185 186 190 184 183 191 193 196 193 184 185 181 183 185 189 189 206 210 194 189 187 187 209 236 243 250 267 259 313 330 327 323 310 285 277 243 242 238 245 284
170 191 192 162 179 186 185 186 181 192 198 190 184 189 186 185 182 178 188 214 203 196 201 197 210 205 246 262 246 252 266 270 274 270 275 253 270 267 171 107 84 43 4
176 190 177 186 189 173 168 162 181 192 212 193 184 186 191 190 183 181 192 204 199 199 208 203 212 209 232 268 280 276 255 248 258 263 282 316 197 119 102 93 88 61 67
184 180 196 200 186 167 133 186 188 199 193 205 187 191 196 196 190 186 193 204 209 199 195 207 205 243 261 217 275 297 308 285 288 315 293 205 137 109 104 103 103 92 72
182 193 184 196 191 200 191 178 158 167 199 187 193 201 195 179 176 179 184 183 197 192 193 211 208 253 269 248 267 74 300 328 354 17 44 107 139 138 121 121 125 114 99
201 195 194 189 192 192 191 139 107 91 62 180 163 127 92 134 133 138 144 147 128 53 263 297 289 225 262 314 210 207 304 243 318 345 55 129 148 137 137 130 92 102 89
223 209 208 198 188 193 171 178 190 189 184 221 207 152 105 77 88 126 113 110 103 66 347 317 321 218 185 252 318 236 235 207 220 308 330 221 147 161 137 109 95 91 86
202 181 244 219 207 204 196 194 191 169 161 138 306 131 128 78 349 1 66 88 86 93 203 244 275 247 203 223 198 284 275 294 234 211 239 289 42 62 74 84 87 81 93
150 135 136 179 221 160 164 188 193 191 170 159 146 176 198 133 140 127 147 106 98 29 321 291 249 228 235 237 229 232 214 228 215 196 208 232 190 82 84 81 72 83 54